| time (UTC) | temp F | wind direction | speed MPH | gust MPH | rain 1hr in | rain 24hr in | rain mn in | humidity % | barometer mb |
| 20260505140256 | 59 | 267 | 1.0 | 5.0 | 0.00 | 0.00 | 0.00 | 77 | 1021.2 |
| 20260505130221 | 59 | 281 | 1.0 | 4.0 | 0.00 | 0.00 | 0.00 | 76 | 1021.5 |
| 20260505125024 | 59 | 305 | 0.0 | 4.0 | 0.00 | 0.00 | 0.00 | 77 | 1021.6 |
| 20260505124524 | 59 | 310 | 0.0 | 4.0 | 0.00 | 0.00 | 0.00 | 76 | 1021.6 |
| 20260505124032 | 59 | 281 | 0.0 | 4.0 | 0.00 | 0.00 | 0.00 | 76 | 1021.7 |
| 20260505123533 | 59 | 302 | 0.0 | 4.0 | 0.00 | 0.00 | 0.00 | 76 | 1021.7 |
| 20260505123016 | 60 | 274 | 1.0 | 4.0 | 0.00 | 0.00 | 0.00 | 76 | 1021.8 |
| 20260505121838 | 60 | 305 | 1.0 | 5.0 | 0.00 | 0.00 | 0.00 | 76 | 1021.8 |
| 20260505120732 | 60 | 280 | 2.0 | 5.0 | 0.00 | 0.00 | 0.00 | 77 | 1021.8 |
| 20260505120226 | 60 | 269 | 2.0 | 5.0 | 0.00 | 0.00 | 0.00 | 76 | 1021.8 |
| 20260505115723 | 60 | 281 | 1.0 | 4.0 | 0.00 | 0.00 | 0.00 | 76 | 1021.9 |
| 20260505115208 | 60 | 259 | 1.0 | 4.0 | 0.00 | 0.00 | 0.00 | 77 | 1021.9 |
| 20260505114651 | 60 | 273 | 0.0 | 5.0 | 0.00 | 0.00 | 0.00 | 76 | 1021.9 |
| 20260505114146 | 60 | 322 | 0.0 | 5.0 | 0.00 | 0.00 | 0.00 | 76 | 1021.9 |
| 20260505113654 | 60 | 277 | 0.0 | 5.0 | 0.00 | 0.00 | 0.00 | 76 | 1021.9 |
| 20260505113147 | 60 | 288 | 1.0 | 5.0 | 0.00 | 0.00 | 0.00 | 77 | 1021.8 |
| 20260505112645 | 60 | 298 | 1.0 | 5.0 | 0.00 | 0.00 | 0.00 | 76 | 1021.9 |
| 20260505112142 | 60 | 257 | 0.0 | 4.0 | 0.00 | 0.00 | 0.00 | 76 | 1021.9 |
| 20260505111639 | 60 | 268 | 1.0 | 2.0 | 0.00 | 0.00 | 0.00 | 76 | 1021.8 |
| 20260505111305 | 60 | 262 | 1.0 | 5.0 | 0.00 | 0.00 | 0.00 | 76 | 1021.8 |
| 20260505110815 | 60 | 305 | 1.0 | 5.0 | 0.00 | 0.00 | 0.00 | 76 | 1021.8 |
| 20260505110303 | 60 | 271 | 0.0 | 4.0 | 0.00 | 0.00 | 0.00 | 76 | 1021.8 |
| 20260505101956 | 60 | 275 | 1.0 | 4.0 | 0.00 | 0.03 | 0.00 | 75 | 1021.8 |
| 20260505101456 | 61 | 294 | 1.0 | 4.0 | 0.00 | 0.03 | 0.00 | 75 | 1021.7 |
| 20260505100954 | 61 | 231 | 1.0 | 8.0 | 0.00 | 0.03 | 0.00 | 75 | 1021.7 |
| 20260505100503 | 60 | 288 | 2.0 | 8.0 | 0.00 | 0.03 | 0.00 | 74 | 1021.7 |
| 20260505095312 | 61 | 299 | 1.0 | 5.0 | 0.00 | 0.03 | 0.00 | 75 | 1021.7 |
| 20260505094759 | 61 | 301 | 1.0 | 5.0 | 0.00 | 0.03 | 0.00 | 74 | 1021.7 |
| 20260505093615 | 61 | 274 | 1.0 | 3.0 | 0.00 | 0.03 | 0.00 | 74 | 1021.7 |
| 20260505093057 | 61 | 291 | 0.0 | 2.0 | 0.00 | 0.03 | 0.00 | 73 | 1021.7 |
| 20260505092550 | 61 | 317 | 0.0 | 3.0 | 0.00 | 0.03 | 0.00 | 73 | 1021.7 |
| 20260505092054 | 61 | 279 | 0.0 | 3.0 | 0.00 | 0.03 | 0.00 | 73 | 1021.6 |
| 20260505091552 | 61 | 266 | 1.0 | 3.0 | 0.00 | 0.03 | 0.00 | 72 | 1021.7 |
| 20260505091059 | 61 | 271 | 1.0 | 3.0 | 0.00 | 0.03 | 0.00 | 72 | 1021.6 |
| 20260505085931 | 60 | 260 | 0.0 | 3.0 | 0.00 | 0.03 | 0.00 | 72 | 1021.5 |
| 20260505085419 | 60 | 289 | 0.0 | 3.0 | 0.00 | 0.03 | 0.00 | 72 | 1021.4 |
| 20260505084901 | 60 | 257 | 0.0 | 2.0 | 0.00 | 0.03 | 0.00 | 73 | 1021.4 |
| 20260505084404 | 60 | 276 | 0.0 | 2.0 | 0.00 | 0.03 | 0.00 | 74 | 1021.4 |
| 20260505083855 | 60 | 247 | 0.0 | 0.0 | 0.00 | 0.03 | 0.00 | 74 | 1021.4 |
| 20260505083357 | 60 | 247 | 0.0 | 0.0 | 0.00 | 0.03 | 0.00 | 74 | 1021.3 |
| 20260505082234 | 60 | 247 | 0.0 | 0.0 | 0.00 | 0.03 | 0.00 | 74 | 1021.2 |
| 20260505081719 | 60 | 247 | 0.0 | 0.0 | 0.00 | 0.03 | 0.00 | 74 | 1021.2 |
| 20260505081205 | 60 | 247 | 0.0 | 0.0 | 0.00 | 0.03 | 0.00 | 74 | 1021.1 |
| 20260505080702 | 60 | 247 | 0.0 | 0.0 | 0.00 | 0.03 | 0.00 | 74 | 1021.1 |
| 20260505080147 | 60 | 247 | 0.0 | 0.0 | 0.00 | 0.03 | 0.00 | 73 | 1021.0 |
| 20260505075643 | 60 | 247 | 0.0 | 0.0 | 0.00 | 0.03 | 0.00 | 73 | 1020.9 |
| 20260505075137 | 60 | 247 | 0.0 | 0.0 | 0.00 | 0.03 | 0.00 | 73 | 1020.8 |
| 20260505073950 | 60 | 247 | 0.0 | 1.0 | 0.00 | 0.03 | 0.00 | 73 | 1020.8 |
| 20260505073454 | 60 | 247 | 0.0 | 0.0 | 0.00 | 0.03 | 0.00 | 73 | 1020.7 |
| 20260505072950 | 60 | 247 | 0.0 | 0.0 | 0.00 | 0.03 | 0.00 | 72 | 1020.7 |
| 20260505072437 | 60 | 247 | 0.0 | 0.0 | 0.00 | 0.03 | 0.00 | 73 | 1020.7 |
| 20260505071930 | 60 | 247 | 0.0 | 1.0 | 0.00 | 0.03 | 0.00 | 73 | 1020.7 |
| 20260505071419 | 60 | 247 | 0.0 | 1.0 | 0.00 | 0.03 | 0.00 | 73 | 1020.6 |
| 20260505070915 | 60 | 290 | 0.0 | 0.0 | 0.00 | 0.03 | 0.00 | 73 | 1020.6 |
| 20260505070410 | 60 | 291 | 0.0 | 0.0 | 0.00 | 0.03 | 0.00 | 74 | 1020.5 |
| 20260505065920 | 60 | 290 | 0.0 | 2.0 | 0.00 | 0.04 | 0.00 | 74 | 1020.5 |
| 20260505065423 | 60 | 280 | 0.0 | 2.0 | 0.00 | 0.04 | 0.00 | 74 | 1020.4 |
| 20260505064932 | 61 | 265 | 0.0 | 0.0 | 0.00 | 0.04 | 0.00 | 74 | 1020.5 |
| 20260505064429 | 61 | 265 | 0.0 | 1.0 | 0.00 | 0.04 | 0.00 | 74 | 1020.4 |
| 20260505063921 | 61 | 265 | 0.0 | 0.0 | 0.00 | 0.04 | 0.00 | 74 | 1020.4 |
| 20260505063430 | 61 | 317 | 0.0 | 0.0 | 0.00 | 0.04 | 0.00 | 74 | 1020.4 |
| 20260505062304 | 61 | 261 | 0.0 | 3.0 | 0.00 | 0.04 | 0.00 | 74 | 1020.3 |
| 20260505061155 | 61 | 314 | 1.0 | 3.0 | 0.00 | 0.04 | 0.00 | 73 | 1020.2 |
| 20260505060025 | 61 | 269 | 0.0 | 3.0 | 0.00 | 0.04 | 0.00 | 73 | 1020.2 |
| 20260505054850 | 61 | 282 | 0.0 | 0.0 | 0.00 | 0.04 | 0.00 | 72 | 1020.1 |
| 20260505054347 | 61 | 282 | 0.0 | 2.0 | 0.00 | 0.04 | 0.00 | 72 | 1020.1 |
| 20260505053853 | 61 | 255 | 0.0 | 2.0 | 0.00 | 0.04 | 0.00 | 72 | 1020.0 |
| 20260505053349 | 61 | 257 | 0.0 | 2.0 | 0.00 | 0.04 | 0.00 | 72 | 1019.9 |
| 20260505052853 | 61 | 257 | 0.0 | 2.0 | 0.00 | 0.04 | 0.00 | 72 | 1019.9 |
| 20260505051724 | 61 | 260 | 0.0 | 4.0 | 0.00 | 0.04 | 0.00 | 71 | 1019.8 |
| 20260505051207 | 61 | 260 | 0.0 | 4.0 | 0.00 | 0.04 | 0.00 | 72 | 1019.8 |
| 20260505050715 | 61 | 260 | 0.0 | 4.0 | 0.00 | 0.04 | 0.00 | 71 | 1019.7 |
| 20260505050159 | 61 | 261 | 1.0 | 4.0 | 0.00 | 0.04 | 0.00 | 71 | 1019.7 |
| 20260505041444 | 62 | 78 | 1.0 | 5.0 | 0.00 | 0.04 | 0.00 | 70 | 1019.4 |
| 20260505040928 | 62 | 307 | 1.0 | 5.0 | 0.00 | 0.04 | 0.00 | 70 | 1019.4 |
| 20260505040436 | 62 | 284 | 0.0 | 5.0 | 0.00 | 0.04 | 0.00 | 69 | 1019.3 |
| 20260505035924 | 62 | 302 | 0.0 | 4.0 | 0.00 | 0.04 | 0.00 | 70 | 1019.2 |
| 20260505035405 | 62 | 288 | 0.0 | 4.0 | 0.00 | 0.04 | 0.00 | 70 | 1019.2 |
| 20260505034853 | 62 | 265 | 0.0 | 3.0 | 0.00 | 0.04 | 0.00 | 70 | 1019.2 |
| 20260505034335 | 62 | 259 | 0.0 | 6.0 | 0.00 | 0.04 | 0.00 | 70 | 1019.2 |
| 20260505033839 | 61 | 30 | 0.0 | 6.0 | 0.00 | 0.04 | 0.00 | 71 | 1019.2 |
| 20260505033341 | 61 | 34 | 0.0 | 6.0 | 0.00 | 0.04 | 0.00 | 70 | 1019.2 |
| 20260505032823 | 61 | 34 | 0.0 | 6.0 | 0.00 | 0.04 | 0.00 | 70 | 1019.2 |
| 20260505032315 | 61 | 68 | 1.0 | 4.0 | 0.00 | 0.04 | 0.00 | 71 | 1019.2 |
| 20260505031759 | 61 | 131 | 1.0 | 4.0 | 0.00 | 0.04 | 0.00 | 71 | 1019.4 |
| 20260505031244 | 61 | 290 | 1.0 | 4.0 | 0.00 | 0.04 | 0.00 | 71 | 1019.4 |
| 20260505030736 | 61 | 49 | 1.0 | 4.0 | 0.00 | 0.04 | 0.00 | 71 | 1019.4 |
| 20260505030240 | 61 | 54 | 1.0 | 4.0 | 0.00 | 0.04 | 0.00 | 71 | 1019.4 |
| 20260505025735 | 61 | 255 | 1.0 | 5.0 | 0.00 | 0.04 | 0.00 | 71 | 1019.4 |
| 20260505025221 | 61 | 262 | 1.0 | 5.0 | 0.00 | 0.04 | 0.00 | 71 | 1019.4 |
| 20260505024101 | 61 | 14 | 1.0 | 7.0 | 0.00 | 0.04 | 0.00 | 71 | 1019.4 |
| 20260505022919 | 61 | 323 | 1.0 | 7.0 | 0.00 | 0.04 | 0.00 | 72 | 1019.5 |
| 20260505022410 | 61 | 342 | 2.0 | 7.0 | 0.00 | 0.04 | 0.00 | 72 | 1019.6 |
| 20260505015338 | 61 | 272 | 2.0 | 6.0 | 0.00 | 0.04 | 0.00 | 73 | 1019.7 |
| 20260505014842 | 60 | 279 | 2.0 | 6.0 | 0.00 | 0.04 | 0.00 | 73 | 1019.7 |
| 20260505014350 | 60 | 301 | 1.0 | 6.0 | 0.00 | 0.04 | 0.00 | 73 | 1019.7 |
| 20260505013841 | 60 | 257 | 2.0 | 6.0 | 0.00 | 0.04 | 0.00 | 74 | 1019.8 |
| 20260505012655 | 60 | 281 | 2.0 | 10.0 | 0.00 | 0.04 | 0.00 | 74 | 1019.9 |
| 20260505010817 | 59 | 272 | 3.0 | 11.0 | 0.00 | 0.04 | 0.00 | 74 | 1019.9 |
| 20260505010322 | 59 | 286 | 3.0 | 8.0 | 0.00 | 0.04 | 0.00 | 73 | 1019.8 |
| 20260505005210 | 59 | 60 | 3.0 | 8.0 | 0.00 | 0.04 | 0.00 | 75 | 1019.8 |
| 20260505004707 | 59 | 37 | 3.0 | 7.0 | 0.00 | 0.04 | 0.00 | 75 | 1019.7 |
| 20260505004154 | 59 | 342 | 3.0 | 7.0 | 0.00 | 0.04 | 0.00 | 76 | 1019.6 |
| 20260505003027 | 59 | 273 | 3.0 | 8.0 | 0.00 | 0.04 | 0.00 | 76 | 1019.5 |
| 20260505002511 | 59 | 288 | 3.0 | 13.0 | 0.00 | 0.04 | 0.00 | 77 | 1019.5 |
| 20260505002011 | 58 | 275 | 3.0 | 13.0 | 0.00 | 0.04 | 0.00 | 77 | 1019.4 |
| 20260505000852 | 58 | 260 | 4.0 | 8.0 | 0.00 | 0.04 | 0.00 | 78 | 1019.3 |
| 20260505000350 | 58 | 324 | 4.0 | 8.0 | 0.00 | 0.04 | 0.00 | 78 | 1019.2 |
| 20260504235838 | 58 | 306 | 3.0 | 8.0 | 0.00 | 0.04 | 0.00 | 78 | 1019.2 |
| 20260504235343 | 58 | 331 | 3.0 | 7.0 | 0.00 | 0.04 | 0.00 | 79 | 1019.2 |
| 20260504234841 | 58 | 284 | 4.0 | 8.0 | 0.00 | 0.04 | 0.00 | 79 | 1019.1 |
| 20260504234336 | 58 | 271 | 4.0 | 8.0 | 0.00 | 0.04 | 0.00 | 80 | 1019.1 |
| 20260504233846 | 58 | 286 | 3.0 | 11.0 | 0.00 | 0.04 | 0.00 | 80 | 1019.1 |
| 20260504233356 | 58 | 294 | 3.0 | 11.0 | 0.00 | 0.04 | 0.00 | 80 | 1019.0 |
| 20260504232859 | 58 | 277 | 4.0 | 11.0 | 0.00 | 0.04 | 0.00 | 80 | 1019.0 |
| 20260504232404 | 58 | 276 | 4.0 | 11.0 | 0.00 | 0.04 | 0.00 | 80 | 1019.0 |
| 20260504231911 | 58 | 350 | 4.0 | 9.0 | 0.00 | 0.04 | 0.00 | 80 | 1019.0 |
| 20260504230757 | 58 | 298 | 4.0 | 12.0 | 0.00 | 0.04 | 0.00 | 80 | 1018.8 |
| 20260504225014 | 57 | 240 | 5.0 | 12.0 | 0.00 | 0.04 | 0.00 | 81 | 1018.7 |
| 20260504224507 | 57 | 297 | 5.0 | 12.0 | 0.00 | 0.04 | 0.00 | 81 | 1018.6 |
| 20260504223959 | 57 | 279 | 4.0 | 10.0 | 0.00 | 0.04 | 0.00 | 81 | 1018.6 |
| 20260504223441 | 58 | 268 | 3.0 | 12.0 | 0.00 | 0.04 | 0.00 | 83 | 1018.4 |
| 20260504222938 | 57 | 260 | 4.0 | 12.0 | 0.00 | 0.04 | 0.00 | 83 | 1018.4 |
| 20260504221811 | 57 | 289 | 4.0 | 12.0 | 0.00 | 0.04 | 0.00 | 83 | 1018.1 |
| 20260504221252 | 57 | 300 | 5.0 | 12.0 | 0.00 | 0.04 | 0.00 | 83 | 1018.0 |
| 20260504220744 | 57 | 276 | 5.0 | 12.0 | 0.00 | 0.04 | 0.00 | 83 | 1017.9 |
| 20260504220242 | 57 | 298 | 4.0 | 10.0 | 0.00 | 0.04 | 0.00 | 84 | 1017.8 |
| 20260504215125 | 57 | 310 | 5.0 | 11.0 | 0.00 | 0.04 | 0.00 | 84 | 1017.7 |
| 20260504212710 | 57 | 295 | 5.0 | 13.0 | 0.00 | 0.04 | 0.00 | 85 | 1017.3 |
| 20260504211538 | 57 | 268 | 3.0 | 11.0 | 0.00 | 0.04 | 0.00 | 85 | 1017.0 |
| 20260504211045 | 57 | 262 | 3.0 | 11.0 | 0.00 | 0.04 | 0.00 | 85 | 1016.9 |
| 20260504210546 | 57 | 231 | 3.0 | 11.0 | 0.00 | 0.04 | 0.00 | 85 | 1016.8 |
| 20260504210049 | 57 | 37 | 3.0 | 11.0 | 0.00 | 0.04 | 0.00 | 85 | 1016.8 |
| 20260504205553 | 57 | 309 | 4.0 | 9.0 | 0.00 | 0.04 | 0.00 | 85 | 1016.7 |
| 20260504205049 | 57 | 257 | 6.0 | 16.0 | 0.00 | 0.04 | 0.00 | 85 | 1016.6 |
| 20260504204530 | 57 | 250 | 6.0 | 16.0 | 0.00 | 0.04 | 0.00 | 85 | 1016.6 |
| 20260504204038 | 57 | 293 | 7.0 | 16.0 | 0.00 | 0.04 | 0.00 | 85 | 1016.6 |
| 20260504202858 | 57 | 276 | 5.0 | 12.0 | 0.00 | 0.04 | 0.00 | 86 | 1016.5 |
| 20260504202346 | 57 | 295 | 4.0 | 12.0 | 0.00 | 0.04 | 0.00 | 86 | 1016.4 |
| 20260504201234 | 57 | 255 | 3.0 | 9.0 | 0.00 | 0.04 | 0.00 | 86 | 1016.1 |
| 20260504200107 | 57 | 279 | 3.0 | 11.0 | 0.00 | 0.04 | 0.00 | 86 | 1016.0 |
| 20260504195558 | 57 | 281 | 3.0 | 11.0 | 0.00 | 0.04 | 0.00 | 86 | 1016.0 |
| 20260504195048 | 57 | 344 | 3.0 | 11.0 | 0.00 | 0.04 | 0.00 | 86 | 1015.9 |
| 20260504194543 | 57 | 266 | 3.0 | 8.0 | 0.00 | 0.04 | 0.00 | 86 | 1015.9 |
| 20260504194049 | 57 | 291 | 3.0 | 8.0 | 0.00 | 0.04 | 0.00 | 85 | 1015.8 |
| 20260504193536 | 57 | 290 | 2.0 | 8.0 | 0.00 | 0.04 | 0.00 | 85 | 1015.7 |
| 20260504193026 | 57 | 287 | 3.0 | 12.0 | 0.00 | 0.04 | 0.00 | 85 | 1015.7 |
| 20260504192523 | 57 | 287 | 3.0 | 12.0 | 0.00 | 0.04 | 0.00 | 85 | 1015.7 |
| 20260504191353 | 57 | 264 | 3.0 | 13.0 | 0.00 | 0.04 | 0.00 | 84 | 1015.5 |
| 20260504190836 | 57 | 249 | 4.0 | 13.0 | 0.00 | 0.04 | 0.00 | 84 | 1015.5 |
| 20260504190330 | 57 | 254 | 5.0 | 13.0 | 0.00 | 0.04 | 0.00 | 84 | 1015.4 |
| 20260504185832 | 57 | 347 | 6.0 | 13.0 | 0.00 | 0.04 | 0.00 | 84 | 1015.3 |
| 20260504184716 | 58 | 255 | 4.0 | 10.0 | 0.00 | 0.04 | 0.00 | 84 | 1015.2 |
| 20260504184212 | 57 | 319 | 5.0 | 10.0 | 0.00 | 0.04 | 0.00 | 84 | 1015.1 |
| 20260504183659 | 57 | 304 | 3.0 | 10.0 | 0.00 | 0.04 | 0.00 | 84 | 1015.0 |
| 20260504183209 | 57 | 285 | 2.0 | 10.0 | 0.00 | 0.04 | 0.00 | 84 | 1015.0 |
| 20260504182656 | 57 | 322 | 2.0 | 8.0 | 0.00 | 0.04 | 0.00 | 84 | 1014.9 |
| 20260504181526 | 57 | 303 | 3.0 | 9.0 | 0.00 | 0.04 | 0.00 | 83 | 1014.8 |
| 20260504181021 | 57 | 256 | 3.0 | 9.0 | 0.00 | 0.04 | 0.00 | 83 | 1014.7 |
| 20260504180508 | 57 | 326 | 3.0 | 9.0 | 0.00 | 0.04 | 0.00 | 83 | 1014.6 |
| 20260504175952 | 57 | 296 | 2.0 | 10.0 | 0.00 | 0.04 | 0.00 | 83 | 1014.6 |
| 20260504175458 | 57 | 291 | 2.0 | 10.0 | 0.00 | 0.04 | 0.00 | 83 | 1014.5 |
| 20260504175008 | 57 | 27 | 3.0 | 10.0 | 0.00 | 0.04 | 0.00 | 83 | 1014.4 |
| 20260504174454 | 57 | 253 | 3.0 | 10.0 | 0.00 | 0.04 | 0.00 | 83 | 1014.4 |
| 20260504173951 | 57 | 288 | 3.0 | 8.0 | 0.00 | 0.04 | 0.00 | 83 | 1014.3 |
| 20260504173448 | 58 | 216 | 3.0 | 10.0 | 0.00 | 0.04 | 0.00 | 83 | 1014.4 |
| 20260504172951 | 58 | 277 | 3.0 | 10.0 | 0.00 | 0.04 | 0.00 | 82 | 1014.4 |
| 20260504172448 | 58 | 283 | 3.0 | 11.0 | 0.00 | 0.04 | 0.00 | 82 | 1014.4 |
| 20260504171920 | 58 | 253 | 3.0 | 11.0 | 0.00 | 0.04 | 0.00 | 82 | 1014.4 |
| 20260504170802 | 58 | 276 | 3.0 | 11.0 | 0.00 | 0.04 | 0.00 | 82 | 1014.2 |
| 20260504160413 | 58 | 301 | 5.0 | 11.0 | 0.00 | 0.04 | 0.00 | 80 | 1013.8 |
| 20260504151004 | 58 | 270 | 5.0 | 14.0 | 0.00 | 0.04 | 0.00 | 79 | 1013.5 |
| 20260504150450 | 58 | 315 | 5.0 | 12.0 | 0.00 | 0.04 | 0.00 | 79 | 1013.5 |
| 20260504141257 | 59 | 204 | 5.0 | 12.0 | 0.00 | 0.04 | 0.00 | 79 | 1013.1 |